[[[{"header":{"parameterUnit":"kt","parameterCategory":2,"dx":1,"dy":1,"la1":30.253999710083008,"la2":30.299108505249023,"lo1":-89.0895004272461,"lo2":-89.04439544677734,"nx":28,"ny":28,"refTime":"2022-10-08T21:00:00:Z","depth":0,"parameterNumber":1,"parameterNumberName":"U-component_of_WINDS"},"data":[-7.299,-7.3224,-7.3197,-7.3452,-7.3469,-7.3639,-7.369,-7.3754,-7.3797,-7.3995,-7.4103,-7.4099,-7.4131,-7.4254,-7.437,-7.4365,-7.4418,-7.452,-7.4498,-7.4062,-7.3999,-7.394,-7.3884,-7.4532,-7.4532,-7.4955,-7.4959,-7.4962,-7.2672,-7.2693,-7.2819,-7.2923,-7.3031,-7.2915,-7.2987,-7.3085,-7.324,-7.3294,-7.34,-7.3572,-7.3703,-7.37,-7.3822,-7.3931,-7.3884,-7.3966,-7.3959,-7.3967,-7.3498,-7.3439,-7.4002,-7.4002,-7.4002,-7.4002,-7.4002,-7.4002,-7.2086,-7.2228,-7.2274,-7.241,-7.2455,-7.2524,-7.2654,-7.2645,-7.2768,-7.2892,-7.2834,-7.3008,-7.3057,-7.319,-7.3227,-7.3362,-7.3265,-7.3347,-7.3368,-7.3391,-7.3421,-7.2819,-7.338,-7.3379,-7.3377,-7.3376,-7.3374,0,-7.1649,-7.1616,-7.1735,-7.1847,-7.1944,-7.2028,-7.2099,-7.2178,-7.2097,-7.2203,-7.2352,-7.2434,-7.2594,-7.2732,-7.2839,-7.2861,-7.2753,-7.2738,-7.2794,-7.2828,-7.2843,-7.2841,-7.2081,-7.2722,-7.2717,-7.2713,-7.271,-7.2707,-7.1059,-7.1226,-7.126,-7.1347,-7.1379,-7.1522,-7.16,-7.1516,-7.1604,-7.1679,-7.1808,-7.1944,-7.2049,-7.2293,-7.228,-7.2401,-7.235,-7.2598,-7.2368,-7.2391,-7.2357,-7.235,-7.2367,-7.2646,-7.2654,-7.2661,-7.2666,0,-7.0729,-7.0681,-7.0932,-7.0948,-7.0957,-7.1137,-7.1151,-7.1288,-7.1263,-7.145,-7.1488,-7.1451,-7.1599,-7.1545,-7.1704,-7.1671,-7.1969,-7.1914,-7.1951,-7.1939,-7.2158,-7.214,-7.2873,-7.2965,-7.2289,-7.2296,-7.2301,0,-7.0208,-7.0431,-7.0347,-7.0495,-7.074,-7.0648,-7.0893,-7.0896,-7.0936,-7.1082,-7.0948,-7.1087,-7.0996,-7.1128,-7.1081,-7.1314,-7.1342,-7.1333,-7.1319,-7.1348,-7.135,-7.1396,-7.1366,-7.1275,-7.1271,-7.1268,-7.1265,0,-6.97,-6.9915,-7.0154,-7.0196,-7.0236,-7.0351,-7.0373,-7.0416,-7.0494,-7.0586,-7.0637,-7.0751,-7.0815,-7.0905,-7.0844,-7.069,-7.1127,-7.0902,-7.1117,-7.112,-7.122,-7.1216,-7.1874,-7.1261,-7.1259,-7.1258,-7.1257,0,-6.9273,-6.9367,-6.9721,-6.975,-6.9811,-6.9968,-7.0074,-7.0196,-7.0252,-7.0232,-7.0304,-7.0209,-7.0406,-7.0187,-7.0458,-7.0275,-7.0345,-7.0353,-7.0367,-7.0385,-7.0143,-7.0526,-7.1156,-7.1222,-7.0397,-7.039,-7.0383,0,-6.8706,-6.9049,-6.8973,-6.9311,-6.9461,-6.9301,-6.9473,-6.9527,-6.9514,-6.964,-6.9624,-6.977,-6.9595,-6.9633,-6.9774,-6.9766,-7.0004,-6.9731,-6.9918,-6.9926,-6.9912,-7.0489,-7.0599,-7.1023,-7.0291,-7.03,-7.0307,0,-6.8261,-6.8306,-6.8372,-6.8416,-6.847,-6.8596,-6.8795,-6.8917,-6.9006,-6.9079,-6.9245,-6.9446,-6.9323,-6.9388,-6.9322,-6.9472,-6.984,-6.932,-6.932,-6.9419,-7.0238,-7.0341,-7.0413,-6.9763,-6.9774,-6.9783,-7.0234,0,-6.7631,-6.7795,-6.7969,-6.807,-6.8157,-6.8365,-6.8307,-6.8406,-6.8334,-6.8316,-6.8557,-6.8587,-6.8714,-6.8779,-6.8711,-6.9069,-6.9002,-6.8869,-6.8655,-6.9034,-6.9181,-6.9241,-6.844,-6.8433,-6.8428,-6.8423,0,0,-6.7102,-6.7336,-6.7246,-6.7435,-6.7504,-6.7334,-6.7562,-6.7609,-6.771,-6.7762,-6.764,-6.7931,-6.7961,-6.8261,-6.8374,-6.8424,-6.8484,-6.8354,-6.8853,-6.8901,-6.8946,-6.9105,-6.9168,-6.8413,-6.8411,-6.8409,-6.8407,0,-6.6861,-6.6893,-6.7118,-6.7162,-6.7224,-6.7193,-6.7247,-6.7279,-6.7278,-6.7513,-6.7371,-6.7509,-6.7743,-6.7795,-6.7852,-6.8315,-6.8203,-6.8358,-6.8628,-6.8799,-6.8854,-6.8903,-6.9071,-6.9132,-6.8394,-6.8395,-6.8395,0,-6.6414,-6.6437,-6.6539,-6.6685,-6.6725,-6.6884,-6.6644,-6.6822,-6.694,-6.6747,-6.6983,-6.6993,-6.7056,-6.7346,-6.7473,-6.7368,-6.795,-6.7755,-6.7789,-6.7803,-6.7966,-6.8033,-6.8093,-6.7308,-6.7305,-6.7301,0,0,-6.6214,-6.6365,-6.6363,-6.6629,-6.6664,-6.6621,-6.6699,-6.6635,-6.6695,-6.672,-6.673,-6.6794,-6.6928,-6.702,-6.7143,-6.7469,-6.7476,-6.7624,-6.7675,-6.7717,-6.7755,-6.7929,-6.7995,-6.7288,-6.7288,-6.7287,0,0,-6.6118,-6.6126,-6.6042,-6.6343,-6.6404,-6.6421,-6.6586,-6.6484,-6.659,-6.656,-6.6461,-6.6474,-6.6743,-6.6759,-6.6586,-6.7067,-6.6855,-6.6895,-6.7047,-6.7111,-6.7161,-6.7154,-6.6347,0,0,0,0,0,-6.5841,-6.6124,-6.6048,-6.609,-6.6276,-6.6463,-6.6486,-6.6411,-6.6262,-6.6395,-6.6387,-6.626,-6.6645,-6.649,-6.6534,-6.6728,-6.7115,-6.7146,-6.7175,-6.7447,-6.7514,-6.7571,0,0,0,0,0,0,-6.5857,-6.5908,-6.604,-6.6071,-6.6111,-6.6452,-6.6185,-6.6172,-6.6246,-6.6219,-6.6265,-6.6261,-6.6201,-6.6463,-6.6503,-6.669,-6.6333,-6.7127,-6.7153,-6.7177,-6.747,-6.7525,-6.7572,0,0,0,0,0,-6.5869,-6.591,-6.6227,-6.6066,-6.6102,-6.6069,-6.6173,-6.616,-6.6217,-6.6206,-6.6197,-6.6153,-6.6209,-6.6238,-6.6486,-6.6673,-6.6304,-6.632,-6.7144,-6.7165,-6.7183,-6.7497,0,0,0,0,0,0,-6.5878,-6.59,-6.6233,-6.6241,-6.5953,-6.6048,-6.606,-6.6151,-6.6197,-6.6192,-6.6087,-6.6065,-6.6218,-6.6238,-6.6261,-6.6672,-6.6281,-6.6297,-6.6307,-6.716,-6.7176,-6.719,0,0,0,0,0,0,-6.5877,-6.5908,-6.6237,-6.6099,-6.609,-6.603,-6.6041,-6.6241,-6.62,-6.6076,-6.6058,-6.6077,-6.6183,-6.624,-6.6257,-6.6573,-6.6263,-6.6278,-6.6289,-6.6295,-6.7173,-6.7186,0,0,0,0,0,0,-6.5889,-6.5915,-6.6096,-6.609,-6.6081,-6.6166,-6.6205,-6.64,-6.6081,-6.6077,-6.605,-6.6036,-6.619,-6.6205,-6.6256,-6.6565,-6.6571,-6.6264,-6.6274,-6.6281,-6.6286,0,0,0,0,0,0,0,-6.5898,-6.5739,-6.6185,-6.6082,-6.6074,-6.6315,-6.6317,-6.6319,-6.6078,-6.6065,-6.6053,-6.6042,-6.6178,-6.6194,-6.6211,-6.6559,0,0,-6.6262,-6.627,0,0,0,0,0,0,0,0,-6.5726,-6.5736,-6.6185,-6.6187,-6.6189,-6.6315,-6.6317,-6.6319,-6.6075,-6.6066,-6.6056,-6.6046,-6.6183,-6.6196,-6.6209,0,0,0,0,0,0,0,0,0,0,0,0,0,0,0,-6.6186,-6.6187,0,-6.6316,-6.6317,-6.6319,-6.6074,-6.6066,-6.6058,-6.605,-6.6186,-6.6197,-6.6208,0,0,0,0,0,0,0,0,0,0,0,0,0,0,0,0,0,0,0,0,0,0,0,0,0,0,0,0,0,0,0,0,0,0,0,0,0,0,0,0,0,0,0,0,0,0,0,0,0,0,0,0,0,0,0,0,0,0,0,0,0,0,0,0,0,0,0,0,0]}],[{"header":{"parameterUnit":"kt","parameterCategory":2,"dx":1,"dy":1,"la1":30.253999710083008,"la2":30.299108505249023,"lo1":-89.0895004272461,"lo2":-89.04439544677734,"nx":28,"ny":28,"refTime":"2022-10-08T21:00:00:Z","depth":0,"parameterNumber":2,"parameterNumberName":"V-component_of_WINDS"},"data":[-8.531,-8.5473,-8.5462,-8.5642,-8.5662,-8.5782,-8.582,-8.5869,-8.5903,-8.6042,-8.6118,-8.6121,-8.6149,-8.6235,-8.6315,-8.6313,-8.6348,-8.6414,-8.6401,-8.6121,-8.6081,-8.6043,-8.6005,-8.6422,-8.6422,-8.6692,-8.6695,-8.6697,-8.5103,-8.5126,-8.5219,-8.5301,-8.5379,-8.5309,-8.5367,-8.5436,-8.5544,-8.5588,-8.5663,-8.5783,-8.5874,-8.5879,-8.5964,-8.6036,-8.6007,-8.606,-8.6055,-8.606,-8.576,-8.572,-8.6082,-8.6082,-8.6082,-8.6082,-8.6082,-8.6082,-8.4724,-8.4822,-8.4866,-8.4966,-8.5004,-8.5058,-8.5149,-8.5151,-8.5239,-8.533,-8.5297,-8.5418,-8.5457,-8.5553,-8.5581,-8.5673,-8.5611,-8.5664,-8.5678,-8.5692,-8.571,-8.5321,-8.5686,-8.5685,-8.5684,-8.5683,-8.5682,0,-8.4443,-8.4428,-8.4516,-8.4601,-8.4673,-8.4737,-8.4793,-8.4849,-8.4808,-8.4883,-8.4988,-8.5046,-8.516,-8.5255,-8.5332,-8.535,-8.5283,-8.5274,-8.5311,-8.5329,-8.5336,-8.5334,-8.4846,-8.5264,-8.526,-8.5257,-8.5255,-8.5254,-8.4059,-8.4176,-8.4216,-8.428,-8.4308,-8.441,-8.4468,-8.4424,-8.4487,-8.4548,-8.4635,-8.4731,-8.4806,-8.4974,-8.4972,-8.5056,-8.5024,-8.5185,-8.5036,-8.5048,-8.5026,-8.502,-8.5031,-8.5215,-8.522,-8.5224,-8.5227,0,-8.3844,-8.3826,-8.4003,-8.403,-8.4041,-8.4164,-8.4186,-8.428,-8.4272,-8.4401,-8.4428,-8.4414,-8.4517,-8.4489,-8.46,-8.4582,-8.4779,-8.4745,-8.4765,-8.4756,-8.4898,-8.4885,-8.5361,-8.5421,-8.4989,-8.4993,-8.4996,0,-8.351,-8.3664,-8.3628,-8.3731,-8.39,-8.3852,-8.402,-8.4029,-8.4064,-8.4165,-8.4085,-8.4181,-8.413,-8.4221,-8.4195,-8.4351,-8.4371,-8.4367,-8.4358,-8.4375,-8.4375,-8.4406,-8.4386,-8.4334,-8.4331,-8.4329,-8.4327,0,-8.3175,-8.3337,-8.3505,-8.3538,-8.3583,-8.3662,-8.3684,-8.3722,-8.3779,-8.3848,-8.3884,-8.3966,-8.4012,-8.4076,-8.4042,-8.3942,-8.4232,-8.4087,-8.4227,-8.4228,-8.4293,-8.429,-8.4718,-8.4324,-8.4324,-8.4323,-8.4322,0,-8.2902,-8.2977,-8.3224,-8.3258,-8.3302,-8.3412,-8.3492,-8.358,-8.3626,-8.3617,-8.3671,-8.3614,-8.3749,-8.3607,-8.3791,-8.3671,-8.3719,-8.3727,-8.3736,-8.3747,-8.3589,-8.3835,-8.4246,-8.4288,-8.3755,-8.3751,-8.3746,0,-8.2524,-8.2769,-8.2731,-8.2965,-8.3074,-8.2978,-8.3098,-8.3142,-8.3141,-8.323,-8.3227,-8.3329,-8.3218,-8.3246,-8.3341,-8.3341,-8.3497,-8.3319,-8.3445,-8.345,-8.3437,-8.3814,-8.3883,-8.4159,-8.3686,-8.3692,-8.3697,0,-8.2229,-8.2285,-8.233,-8.2365,-8.2419,-8.251,-8.2648,-8.274,-8.2802,-8.2861,-8.2975,-8.3117,-8.3039,-8.3087,-8.3049,-8.3149,-8.339,-8.3051,-8.3051,-8.3113,-8.3653,-8.3717,-8.3764,-8.3342,-8.3349,-8.3355,-8.3648,0,-8.182,-8.194,-8.2061,-8.2145,-8.2211,-8.2356,-8.233,-8.2402,-8.236,-8.2355,-8.2522,-8.2551,-8.2643,-8.2688,-8.2648,-8.2887,-8.2843,-8.2758,-8.2618,-8.2866,-8.2962,-8.3002,-8.2478,-8.2473,-8.247,-8.2467,0,0,-8.1462,-8.1634,-8.1589,-8.1724,-8.1777,-8.1676,-8.1833,-8.1872,-8.1954,-8.1992,-8.1913,-8.212,-8.2148,-8.2352,-8.2428,-8.2465,-8.2505,-8.242,-8.2749,-8.278,-8.2809,-8.2913,-8.2954,-8.246,-8.2459,-8.2458,-8.2457,0,-8.1308,-8.1343,-8.1501,-8.154,-8.1596,-8.1584,-8.1622,-8.1659,-8.1664,-8.1828,-8.1741,-8.1837,-8.2005,-8.2044,-8.2086,-8.2394,-8.2322,-8.2424,-8.2599,-8.2713,-8.275,-8.2782,-8.2891,-8.2931,-8.2448,-8.2448,-8.2449,0,-8.1012,-8.1041,-8.1115,-8.1233,-8.1269,-8.1383,-8.1231,-8.1358,-8.1442,-8.1323,-8.1488,-8.15,-8.1551,-8.1749,-8.1837,-8.1768,-8.2158,-8.203,-8.2052,-8.2061,-8.217,-8.2214,-8.2253,-8.1739,-8.1737,-8.1735,0,0,-8.0882,-8.0994,-8.1012,-8.1198,-8.1226,-8.1211,-8.127,-8.1234,-8.1284,-8.1305,-8.1319,-8.1369,-8.1465,-8.1529,-8.1618,-8.184,-8.1846,-8.1944,-8.1977,-8.2005,-8.2029,-8.2145,-8.2188,-8.1726,-8.1726,-8.1725,0,0,-8.0819,-8.0848,-8.0798,-8.1011,-8.1063,-8.109,-8.1204,-8.1142,-8.122,-8.1201,-8.1145,-8.1156,-8.134,-8.1356,-8.1241,-8.1568,-8.143,-8.1457,-8.1551,-8.1593,-8.1626,-8.1618,-8.1087,0,0,0,0,0,-8.0649,-8.0844,-8.0798,-8.083,-8.0978,-8.1116,-8.1134,-8.1094,-8.0997,-8.1088,-8.109,-8.101,-8.1282,-8.1178,-8.121,-8.1339,-8.1611,-8.1632,-8.1651,-8.1824,-8.1868,-8.1905,0,0,0,0,0,0,-8.0661,-8.0701,-8.0793,-8.083,-8.0863,-8.1108,-8.0936,-8.093,-8.0987,-8.0969,-8.1012,-8.1011,-8.0978,-8.1159,-8.1188,-8.1312,-8.1077,-8.1619,-8.1637,-8.1652,-8.1839,-8.1875,-8.1906,0,0,0,0,0,-8.0671,-8.0702,-8.0951,-8.0827,-8.0855,-8.0849,-8.0928,-8.0922,-8.0965,-8.0969,-8.0966,-8.093,-8.0983,-8.1004,-8.1176,-8.13,-8.1057,-8.1068,-8.1631,-8.1644,-8.1656,-8.1857,0,0,0,0,0,0,-8.0678,-8.0697,-8.0955,-8.0962,-8.0751,-8.0834,-8.0846,-8.0915,-8.096,-8.0959,-8.0883,-8.0869,-8.0988,-8.1004,-8.1021,-8.1298,-8.1041,-8.1052,-8.1059,-8.1641,-8.1651,-8.1661,0,0,0,0,0,0,-8.0679,-8.0704,-8.0959,-8.0865,-8.0861,-8.0821,-8.0832,-8.0972,-8.0962,-8.0871,-8.0861,-8.0876,-8.0962,-8.1005,-8.1017,-8.1238,-8.1028,-8.1039,-8.1046,-8.1051,-8.165,-8.1658,0,0,0,0,0,0,-8.0689,-8.071,-8.0863,-8.086,-8.0856,-8.0932,-8.0943,-8.1097,-8.0884,-8.0871,-8.0864,-8.0855,-8.0966,-8.0977,-8.1016,-8.1232,-8.1236,-8.1028,-8.1036,-8.1041,-8.1044,0,0,0,0,0,0,0,-8.0696,-8.0568,-8.0914,-8.0856,-8.0852,-8.1027,-8.1029,-8.1031,-8.0882,-8.0874,-8.0866,-8.0859,-8.0968,-8.0979,-8.0991,-8.1227,0,0,-8.1027,-8.1032,0,0,0,0,0,0,0,0,-8.0558,-8.0566,-8.0914,-8.0916,-8.0917,-8.1028,-8.1029,-8.1031,-8.0881,-8.0874,-8.0868,-8.0862,-8.0971,-8.098,-8.099,0,0,0,0,0,0,0,0,0,0,0,0,0,0,0,-8.0914,-8.0916,0,-8.1028,-8.1029,-8.103,-8.088,-8.0875,-8.0869,-8.0864,-8.0973,-8.0981,-8.0989,0,0,0,0,0,0,0,0,0,0,0,0,0,0,0,0,0,0,0,0,0,0,0,0,0,0,0,0,0,0,0,0,0,0,0,0,0,0,0,0,0,0,0,0,0,0,0,0,0,0,0,0,0,0,0,0,0,0,0,0,0,0,0,0,0,0,0,0,0]}]]]